• In Kazakhstan
  • List of Countries
  • For 7 days
  • Water Temperature
  • Satellite Maps
  • Weather Map
  • News
  • Weather Widgets
  • user-avatar
    Login

    Hourly Weather Ajdyn

    Today, 21 November, Tuesday

    Time Temperature Precipitation Wind Pressure Humidity
    00:00 +8°C° 0.1 mm 7 mps 757 mmHg 84%
    01:00 +7°C° 0.1 mm 6 mps 758 mmHg 83%
    02:00 +7°C° 0.1 mm 6 mps 758 mmHg 83%
    03:00 +5°C° 0 mm 6 mps 759 mmHg 83%
    04:00 +6°C° 0 mm 5 mps 759 mmHg 83%
    05:00 +5°C° 0 mm 5 mps 760 mmHg 83%
    06:00 +5°C° 0 mm 5 mps 760 mmHg 82%
    07:00 +6°C° 0 mm 5 mps 761 mmHg 80%
    08:00 +6°C° 0 mm 4 mps 761 mmHg 79%
    09:00 +7°C° 0 mm 4 mps 761 mmHg 70%
    10:00 +8°C° 0 mm 5 mps 762 mmHg 60%
    11:00 +9°C° 0 mm 5 mps 762 mmHg 51%
    12:00 +10°C° 0 mm 5 mps 762 mmHg 47%
    13:00 +10°C° 0 mm 5 mps 762 mmHg 43%
    14:00 +12°C° 0 mm 5 mps 762 mmHg 39%
    15:00 +10°C° 0 mm 5 mps 762 mmHg 43%
    16:00 +8°C° 0 mm 5 mps 762 mmHg 47%
    17:00 +7°C° 0 mm 4 mps 762 mmHg 51%
    18:00 +7°C° 0 mm 4 mps 762 mmHg 53%
    19:00 +6°C° 0 mm 4 mps 763 mmHg 56%
    20:00 +6°C° 0 mm 4 mps 763 mmHg 58%
    21:00 +5°C° 0 mm 3 mps 763 mmHg 59%
    22:00 +5°C° 0 mm 3 mps 764 mmHg 61%
    23:00 +5°C° 0 mm 3 mps 764 mmHg 62%

    Tomorrow, 22 November, Wednesday

    Time Temperature Precipitation Wind Pressure Humidity
    00:00 +4°C° 0 mm 3 mps 764 mmHg 62%
    01:00 +4°C° 0 mm 3 mps 764 mmHg 63%
    02:00 +4°C° 0 mm 3 mps 764 mmHg 63%
    03:00 +4°C° 0 mm 3 mps 764 mmHg 62%
    04:00 +4°C° 0 mm 3 mps 763 mmHg 61%
    05:00 +4°C° 0 mm 3 mps 763 mmHg 60%
    06:00 +4°C° 0 mm 3 mps 763 mmHg 58%
    07:00 +4°C° 0 mm 3 mps 764 mmHg 56%
    08:00 +5°C° 0 mm 3 mps 764 mmHg 54%
    09:00 +8°C° 0 mm 3 mps 764 mmHg 47%
    10:00 +10°C° 0 mm 2 mps 764 mmHg 39%
    11:00 +13°C° 0 mm 2 mps 764 mmHg 32%
    12:00 +14°C° 0 mm 2 mps 764 mmHg 32%
    13:00 +15°C° 0 mm 2 mps 763 mmHg 31%
    14:00 +16°C° 0 mm 2 mps 763 mmHg 31%
    15:00 +14°C° 0 mm 2 mps 763 mmHg 35%
    16:00 +13°C° 0 mm 2 mps 763 mmHg 39%
    17:00 +12°C° 0 mm 2 mps 763 mmHg 43%
    18:00 +10°C° 0 mm 2 mps 763 mmHg 45%
    19:00 +10°C° 0 mm 2 mps 763 mmHg 46%
    20:00 +9°C° 0 mm 2 mps 764 mmHg 48%
    21:00 +9°C° 0 mm 2 mps 764 mmHg 49%
    22:00 +9°C° 0 mm 2 mps 764 mmHg 49%
    23:00 +8°C° 0 mm 2 mps 764 mmHg 50%

    Day after tomorrow, 23 November, Thursday

    Time Temperature Precipitation Wind Pressure Humidity
    00:00 +8°C° 0 mm 2 mps 764 mmHg 51%
    01:00 +8°C° 0 mm 2 mps 764 mmHg 52%
    02:00 +8°C° 0 mm 2 mps 764 mmHg 52%
    03:00 +8°C° 0 mm 2 mps 763 mmHg 53%
    04:00 +8°C° 0 mm 2 mps 763 mmHg 53%
    05:00 +8°C° 0 mm 2 mps 763 mmHg 54%
    06:00 +8°C° 0 mm 2 mps 763 mmHg 53%
    07:00 +9°C° 0 mm 2 mps 764 mmHg 53%
    08:00 +9°C° 0 mm 2 mps 764 mmHg 53%
    09:00 +12°C° 0 mm 2 mps 764 mmHg 48%
    10:00 +15°C° 0 mm 2 mps 764 mmHg 43%
    11:00 +18°C° 0 mm 1 mps 764 mmHg 37%
    12:00 +18°C° 0 mm 2 mps 764 mmHg 36%
    13:00 +18°C° 0 mm 2 mps 763 mmHg 35%
    14:00 +19°C° 0 mm 2 mps 763 mmHg 34%
    15:00 +18°C° 0 mm 2 mps 763 mmHg 39%
    16:00 +16°C° 0 mm 2 mps 763 mmHg 44%
    17:00 +14°C° 0 mm 2 mps 763 mmHg 49%
    18:00 +14°C° 0 mm 2 mps 763 mmHg 51%
    19:00 +13°C° 0 mm 2 mps 764 mmHg 53%
    20:00 +13°C° 0 mm 2 mps 764 mmHg 55%
    21:00 +12°C° 0 mm 2 mps 764 mmHg 56%
    22:00 +12°C° 0 mm 2 mps 764 mmHg 57%
    23:00 +12°C° 0 mm 2 mps 764 mmHg 58%

    24 November, Friday

    Time Temperature Precipitation Wind Pressure Humidity
    00:00 +10°C° 0 mm 2 mps 764 mmHg 58%
    01:00 +10°C° 0 mm 2 mps 764 mmHg 59%
    02:00 +10°C° 0 mm 2 mps 764 mmHg 59%
    03:00 +10°C° 0 mm 3 mps 764 mmHg 59%
    04:00 +9°C° 0 mm 3 mps 764 mmHg 60%
    05:00 +9°C° 0 mm 3 mps 764 mmHg 60%
    06:00 +9°C° 0 mm 3 mps 764 mmHg 60%
    07:00 +10°C° 0 mm 3 mps 764 mmHg 59%
    08:00 +10°C° 0 mm 3 mps 764 mmHg 59%
    09:00 +12°C° 0 mm 3 mps 764 mmHg 53%
    10:00 +16°C° 0 mm 2 mps 764 mmHg 46%
    11:00 +18°C° 0 mm 2 mps 764 mmHg 39%
    12:00 +19°C° 0 mm 2 mps 764 mmHg 37%
    13:00 +20°C° 0 mm 2 mps 763 mmHg 35%
    14:00 +20°C° 0 mm 3 mps 763 mmHg 33%
    15:00 +19°C° 0 mm 2 mps 763 mmHg 37%
    16:00 +17°C° 0 mm 2 mps 763 mmHg 42%
    17:00 +16°C° 0 mm 2 mps 763 mmHg 46%
    18:00 +15°C° 0 mm 2 mps 763 mmHg 48%
    19:00 +14°C° 0 mm 2 mps 764 mmHg 50%
    20:00 +12°C° 0 mm 3 mps 764 mmHg 52%
    21:00 +13°C° 0 mm 2 mps 764 mmHg 53%
    22:00 +12°C° 0 mm 2 mps 764 mmHg 55%
    23:00 +12°C° 0 mm 2 mps 765 mmHg 56%

    25 November, Saturday

    Time Temperature Precipitation Wind Pressure Humidity
    00:00 +12°C° 0 mm 2 mps 765 mmHg 56%
    01:00 +10°C° 0 mm 2 mps 764 mmHg 57%
    02:00 +10°C° 0 mm 2 mps 764 mmHg 58%
    03:00 +10°C° 0 mm 2 mps 764 mmHg 58%
    04:00 +9°C° 0 mm 2 mps 764 mmHg 59%
    05:00 +9°C° 0 mm 2 mps 764 mmHg 59%
    06:00 +9°C° 0 mm 2 mps 764 mmHg 59%
    07:00 +10°C° 0 mm 2 mps 765 mmHg 59%
    08:00 +10°C° 0 mm 2 mps 765 mmHg 58%
    09:00 +13°C° 0 mm 2 mps 765 mmHg 52%
    10:00 +16°C° 0 mm 2 mps 765 mmHg 45%
    11:00 +19°C° 0 mm 1 mps 765 mmHg 38%
    12:00 +20°C° 0 mm 1 mps 765 mmHg 36%
    13:00 +21°C° 0 mm 1 mps 764 mmHg 34%
    14:00 +21°C° 0 mm 1 mps 764 mmHg 32%
    15:00 +20°C° 0 mm 1 mps 764 mmHg 37%
    16:00 +18°C° 0 mm 1 mps 764 mmHg 41%
    17:00 +15°C° 0 mm 1 mps 764 mmHg 46%
    18:00 +15°C° 0 mm 1 mps 765 mmHg 48%
    19:00 +14°C° 0 mm 1 mps 765 mmHg 50%
    20:00 +13°C° 0 mm 1 mps 765 mmHg 52%
    21:00 +13°C° 0 mm 1 mps 765 mmHg 53%
    22:00 +13°C° 0 mm 1 mps 766 mmHg 54%
    23:00 +12°C° 0 mm 1 mps 766 mmHg 55%

    26 November, Sunday

    Time Temperature Precipitation Wind Pressure Humidity
    00:00 +12°C° 0 mm 1 mps 766 mmHg 55%
    01:00 +12°C° 0 mm 2 mps 766 mmHg 56%
    02:00 +10°C° 0 mm 2 mps 766 mmHg 56%
    03:00 +10°C° 0 mm 2 mps 766 mmHg 56%
    04:00 +10°C° 0 mm 2 mps 766 mmHg 57%
    05:00 +10°C° 0 mm 2 mps 766 mmHg 57%
    06:00 +10°C° 0 mm 2 mps 766 mmHg 57%
    07:00 +10°C° 0 mm 2 mps 766 mmHg 56%
    08:00 +10°C° 0 mm 2 mps 766 mmHg 56%
    09:00 +14°C° 0 mm 2 mps 766 mmHg 50%
    10:00 +16°C° 0 mm 1 mps 766 mmHg 44%
    11:00 +19°C° 0 mm 1 mps 766 mmHg 37%
    12:00 +20°C° 0 mm 1 mps 766 mmHg 36%
    13:00 +20°C° 0 mm 2 mps 765 mmHg 34%
    14:00 +20°C° 0 mm 2 mps 765 mmHg 33%
    15:00 +18°C° 0 mm 2 mps 765 mmHg 38%
    16:00 +17°C° 0 mm 2 mps 765 mmHg 43%
    17:00 +15°C° 0 mm 2 mps 765 mmHg 48%
    18:00 +14°C° 0 mm 2 mps 765 mmHg 50%
    19:00 +14°C° 0 mm 1 mps 765 mmHg 52%
    20:00 +13°C° 0 mm 1 mps 765 mmHg 55%
    21:00 +13°C° 0 mm 1 mps 765 mmHg 55%
    22:00 +12°C° 0 mm 1 mps 765 mmHg 56%
    23:00 +12°C° 0 mm 1 mps 765 mmHg 57%
    Show more